User: anonymous   Login
Location: Dappach
(48.9767°N, 9.6998°E)
Time: 09:05:57
(UTC+00:00)
Language:

Cosmos 1455 - Orbit

View from above orbital plane
View from above orbital plane
View from above satellite
View from above satellite

Ground track
Ground track

The orbit data is extracted from the following two-line orbital elements,

1 14032U 83037A   24197.81380087  .00020472  00000-0  53299-3 0  9995
2 14032  82.5065  38.1207 0009666 243.2233 116.8024 15.38709006254153
Epoch (UTC): 15 July 2024 19:31:52
Eccentricity: 0.0009666
inclination: 82.5065°
perigee height: 443 km
apogee height: 456 km
right ascension of ascending node: 38.1207°
argument of perigee: 243.2233°
revolutions per day: 15.38709006
mean anomaly at epoch: 116.8024°
orbit number at epoch: 25415

The dashed part of the orbit path shows where the satellite is in the earth's shadow,  

DLR